This demonstration page uses our WeatherBlox Daily Observations layout. Learn more.

Left ArrowRight Arrow

44.89941, -97.11507

Hourly Observations for June 1, 2021

Temp ( °F °C ) Dew Point ( °F °C ) Humidity (%) Winds ( mph kmh ) Pressure ( in mb ) Visibility ( mi km ) Precip ( " mm )
12:53 am 00:53 Clear 52 11.1 43 6.1 72 72 Calm 30.17 1022 10 16 0.00 0.00
1:53 am 01:53 Clear 48 8.9 42 5.6 80 80 Calm 30.17 1022 10 16 0.00 0.00
2:53 am 02:53 Clear 50 10 40 4.4 68 68 ESE 6 9 30.14 1021 10 16 0.00 0.00
3:53 am 03:53 Clear 48 8.9 40 4.4 74 74 Calm 30.15 1021 10 16 0.00 0.00
4:53 am 04:53 Clear 46 7.8 40 4.4 79 79 Calm 30.15 1021 10 16 0.00 0.00
5:53 am 05:53 Sunny 46 7.8 41 5 83 83 Calm 30.16 1021 10 16 0.00 0.00
6:53 am 06:53 Sunny 49 9.4 44 6.7 83 83 S 3 6 30.16 1021 10 16 0.00 0.00
7:53 am 07:53 Sunny 56 13.3 46 7.8 70 70 SSE 3 6 30.15 1021 10 16 0.00 0.00
8:40 am 08:40 Mostly Sunny 61 16.1 47 8.3 60 60 SSW 9 15 30.12 1020 10 16 0.00 0.00
8:53 am 08:53 Sunny 62 16.7 46 7.8 56 56 S 7 11 30.15 1021 10 16 0.00 0.00
9:53 am 09:53 Sunny 67 19.4 44 6.7 44 44 SSE 8 13 30.13 1020 10 16 0.00 0.00
10:53 am 10:53 Sunny 72 22.2 40 4.4 31 31 SSE 9 15 30.10 1019 10 16 0.00 0.00
11:53 am 11:53 Sunny 74 23.3 38 3.3 27 27 S 12 19 30.10 1019 10 16 0.00 0.00
12:53 pm 12:53 Sunny 77 25 41 5 28 28 S 12 19 30.07 1018 10 16 0.00 0.00
1:53 pm 13:53 Sunny 78 25.6 43 6.1 29 29 S 9 15 30.05 1018 10 16 0.00 0.00
2:53 pm 14:53 Sunny 80 26.7 43 6.1 27 27 undefined N/A 30.03 1017 10 16 0.00 0.00
3:53 pm 15:53 Sunny 80 26.7 41 5 25 25 WSW 6 9 30.01 1016 10 16 0.00 0.00
4:53 pm 16:53 Cloudy 77 25 43 6.1 30 30 SW 7 11 30.01 1016 10 16 0.00 0.00
5:45 pm 17:45 Cloudy with Light Rain 69 20.6 48 8.9 47 47 S 16 26 29.96 1015 10 16 0.00 0.00
5:53 pm 17:53 Cloudy with Light Rain 71 21.7 46 7.8 41 41 SE 15 24 30.01 1016 10 16 0.00 0.00
6:00 pm 18:00 Mostly Cloudy 72 22.2 45 7.2 38 38 ESE 8 13 29.94 1014 10 16 0.00 0.00
6:53 pm 18:53 Mostly Cloudy 74 23.3 47 8.3 38 38 SSE 6 9 29.98 1015 10 16 0.00 0.00
7:53 pm 19:53 Cloudy 70 21.1 50 10 49 49 E 5 7 29.98 1015 10 16 0.01 0.25
8:53 pm 20:53 Cloudy 69 20.6 54 12.2 59 59 SE 3 6 29.97 1015 10 16 0.00 0.00
9:53 pm 21:53 Mostly Cloudy 67 19.4 51 10.6 57 57 S 5 7 29.97 1015 10 16 0.00 0.00
10:53 pm 22:53 Partly Cloudy 64 17.8 52 11.1 65 65 S 8 13 29.97 1015 10 16 0.00 0.00
11:53 pm 23:53 Cloudy with Light Rain 64 17.8 52 11.1 65 65 WSW 3 6 29.96 1015 10 16 0.00 0.00

Powered by AerisWeather